Change the Weather History Date:

Friday, February 22, 2013

  Actual Average (KFWA) Record (KFWA)
Temperature  
Mean Temperature 28 °F 30 °F  
Max Temperature 33 °F 39 °F 67 °F (1922)
Min Temperature 23 °F 22 °F -9 °F (1963)
Degree Days  
Heating Degree Days 37 35  
Month to date heating degree days 825  
Since 1 July heating degree days 4396  
Cooling Degree Days 0 0  
Month to date cooling degree days 0  
Year to date cooling degree days 0  
Moisture  
Dew Point 26 °F    
Average Humidity 89    
Maximum Humidity 100    
Minimum Humidity 74    
Precipitation  
Precipitation 0.07 in 0.08 in 3.03 in (1990)
Month to date precipitation 1.57  
Year to date precipitation 3.83  
Snow  
Snow 0.00 in 0.20 in 6.40 in (2003)
Month to date snowfall 6.3  
Since 1 July snowfall 27.0  
Snow Depth -    
Sea Level Pressure  
Sea Level Pressure 29.93 in    
Wind  
Wind Speed 11 mph (SE)    
Max Wind Speed 20 mph    
Max Gust Speed 26 mph    
Visibility 4 miles    
Events Fog , Rain , Snow    
T = Trace of Precipitation, MM = Missing Value Source: NWS Daily Summary

Daily Weather History Graph

Daily Weather History Graph

Search for Another Location

Airport or City:

Trip Planner

Search our weather history database for the weather conditions in past years. The results will help you decide how hot, cold, wet, or windy it might be!

Date:

Astronomy

Feb. 22, 2013 Rise Set
Actual Time 7:24 AM EST 6:23 PM EST
Civil Twilight 6:56 AM EST 6:51 PM EST
Nautical Twilight 6:24 AM EST 7:23 PM EST
Astronomical Twilight 5:52 AM EST 7:55 PM EST
Moon 3:32 PM EST (2/22) 5:10 AM EST (2/22)
Length of Visible Light 11h 54m
Length of Day
10h 58m
Waxing Gibbous, 90% of the Moon is Illuminated
Feb 22
Waxing Gibbous
Feb 25
Full
Mar 4
Last Quarter
Mar 11
New
Mar 19
First Quarter

Hourly Weather History & Observations

Time (EST) Temp. Windchill Dew Point Humidity Pressure Visibility Wind Dir Wind Speed Gust Speed Precip Events Conditions
12:15 AM 23.0 °F 10.1 °F 15.8 °F 74% 30.14 in 10.0 mi East 15.0 mph 20.7 mph N/A   Overcast
12:35 AM 23.0 °F 11.7 °F 15.8 °F 74% 30.13 in 10.0 mi East 11.5 mph 20.7 mph N/A   Overcast
12:55 AM 23.0 °F 11.1 °F 15.8 °F 74% 30.14 in 10.0 mi East 12.7 mph 26.5 mph N/A   Overcast
1:15 AM 23.0 °F 11.1 °F 15.8 °F 74% 30.13 in 10.0 mi East 12.7 mph 23.0 mph N/A   Overcast
1:35 AM 23.0 °F 8.7 °F 15.8 °F 74% 30.09 in 10.0 mi East 18.4 mph 24.2 mph N/A   Overcast
1:55 AM 23.0 °F 10.1 °F 17.6 °F 80% 30.07 in 1.8 mi East 15.0 mph 25.3 mph N/A Snow Light Snow
2:15 AM 23.0 °F 8.3 °F 17.6 °F 80% 30.05 in 2.5 mi East 19.6 mph 24.2 mph N/A Snow Light Snow
2:35 AM 23.0 °F 8.7 °F 17.6 °F 80% 30.04 in 3.0 mi East 18.4 mph 25.3 mph N/A Snow Light Snow
2:55 AM 23.0 °F 10.1 °F 17.6 °F 80% 30.03 in 1.8 mi East 15.0 mph 24.2 mph N/A Snow Light Snow
3:15 AM 23.0 °F 8.3 °F 19.4 °F 86% 30.00 in 2.0 mi East 19.6 mph 26.5 mph 0.01 in Snow Light Snow
3:35 AM 23.0 °F 9.6 °F 19.4 °F 86% 29.98 in 3.0 mi East 16.1 mph 25.3 mph 0.01 in Snow Light Snow
3:55 AM 23.0 °F 10.1 °F 19.4 °F 86% 29.98 in 2.5 mi East 15.0 mph 26.5 mph 0.01 in Snow Light Snow
4:35 AM 23.0 °F 10.6 °F 19.4 °F 86% 29.96 in 2.0 mi East 13.8 mph 23.0 mph 0.02 in Snow Light Snow
4:55 AM 23.0 °F 8.7 °F 21.2 °F 93% 29.94 in 2.5 mi East 18.4 mph 26.5 mph 0.02 in Snow Light Snow
5:15 AM 23.0 °F 10.1 °F 21.2 °F 93% 29.95 in 1.8 mi East 15.0 mph 20.7 mph N/A Snow Light Snow
5:35 AM 24.8 °F 14.0 °F 21.2 °F 86% 29.93 in 1.8 mi East 11.5 mph 17.3 mph 0.01 in Snow Light Snow
5:55 AM 24.8 °F 12.4 °F 21.2 °F 86% 29.92 in 1.8 mi East 15.0 mph 21.9 mph 0.02 in Snow Light Snow
6:15 AM 26.6 °F 16.2 °F 23.0 °F 86% 29.93 in 2.5 mi East 11.5 mph 18.4 mph 0.01 in   Overcast
6:35 AM 24.8 °F 15.3 °F 21.2 °F 86% 29.94 in 2.0 mi East 9.2 mph 16.1 mph 0.01 in Snow Light Snow
6:55 AM 24.8 °F 14.0 °F 21.2 °F 86% 29.93 in 1.0 mi East 11.5 mph - 0.02 in Snow Light Snow
7:15 AM 24.8 °F 16.1 °F 21.2 °F 86% 29.93 in 2.5 mi East 8.1 mph - N/A Snow Light Snow
7:35 AM 24.8 °F 16.1 °F 23.0 °F 93% 29.93 in 3.0 mi East 8.1 mph - N/A Snow Light Snow
7:55 AM 24.8 °F 15.3 °F 23.0 °F 93% 29.92 in 2.5 mi East 9.2 mph - N/A Snow Light Snow
8:35 AM 26.6 °F 18.2 °F 23.0 °F 86% 29.92 in 2.0 mi East 8.1 mph - N/A   Overcast
8:55 AM 26.6 °F 17.5 °F 23.0 °F 86% 29.91 in 1.8 mi East 9.2 mph - N/A   Overcast
9:15 AM 26.6 °F 19.1 °F 23.0 °F 86% 29.91 in 2.0 mi East 6.9 mph - N/A   Overcast
9:35 AM 26.6 °F 17.5 °F 23.0 °F 86% 29.90 in 1.8 mi East 9.2 mph - N/A   Overcast
9:55 AM 26.6 °F 16.8 °F 24.8 °F 93% 29.89 in 2.0 mi East 10.4 mph - N/A   Overcast
10:15 AM 26.6 °F 19.1 °F 24.8 °F 93% 29.89 in 2.0 mi East 6.9 mph - N/A   Overcast
10:35 AM 28.4 °F 23.3 °F 26.6 °F 93% 29.89 in 1.8 mi ESE 4.6 mph - N/A   Overcast
10:55 AM 28.4 °F 21.2 °F 26.6 °F 93% 29.88 in 1.8 mi ESE 6.9 mph - N/A   Overcast
11:15 AM 28.4 °F 23.3 °F 26.6 °F 93% 29.88 in 1.8 mi ESE 4.6 mph - N/A   Overcast
11:35 AM 30.2 °F 25.4 °F 26.6 °F 86% 29.88 in 1.5 mi ESE 4.6 mph - N/A   Overcast
11:55 AM 30.2 °F - 28.4 °F 93% 29.88 in 1.2 mi Calm Calm - N/A   Overcast
12:15 PM 30.2 °F - 28.4 °F 93% 29.88 in 1.2 mi Calm Calm - N/A   Overcast
12:35 PM 30.2 °F 25.4 °F 28.4 °F 93% 29.87 in 1.0 mi ESE 4.6 mph - N/A   Overcast
12:55 PM 32.0 °F - 30.2 °F 93% 29.87 in 0.8 mi Calm Calm - N/A   Overcast
1:15 PM 32.0 °F 28.7 °F 30.2 °F 93% 29.86 in 0.8 mi SSE 3.5 mph - N/A   Overcast
1:35 PM 32.0 °F - 30.2 °F 93% 29.86 in 0.8 mi Calm Calm - N/A   Overcast
1:55 PM 32.0 °F - 32.0 °F 100% 29.86 in 0.8 mi Calm Calm - N/A   Overcast
2:15 PM 32.0 °F - 32.0 °F 100% 29.86 in 0.5 mi Calm Calm - N/A Fog Fog
2:35 PM 32.0 °F - 32.0 °F 100% 29.87 in 0.5 mi Calm Calm - N/A Fog Fog
2:55 PM 32.0 °F 28.7 °F 32.0 °F 100% 29.87 in 0.5 mi South 3.5 mph - N/A Fog Fog
3:15 PM 32.0 °F 27.5 °F 32.0 °F 100% 29.87 in 0.5 mi SSW 4.6 mph - N/A Fog Fog
3:35 PM 33.8 °F 29.6 °F 32.0 °F 93% 29.87 in 0.5 mi SSW 4.6 mph - N/A Fog Fog
3:55 PM 33.8 °F 26.4 °F 32.0 °F 93% 29.87 in 1.0 mi SW 9.2 mph - N/A   Overcast
4:15 PM 33.8 °F 27.7 °F 32.0 °F 93% 29.87 in 4.0 mi SW 6.9 mph 18.4 mph N/A   Overcast
4:35 PM 33.8 °F 25.3 °F 32.0 °F 93% 29.88 in 4.0 mi SW 11.5 mph 19.6 mph N/A   Overcast
4:55 PM 33.8 °F 27.0 °F 32.0 °F 93% 29.88 in 5.0 mi SW 8.1 mph - N/A   Overcast
5:15 PM 33.8 °F 26.4 °F 32.0 °F 93% 29.88 in 7.0 mi SW 9.2 mph - N/A   Overcast
5:35 PM 33.8 °F 24.8 °F 32.0 °F 93% 29.89 in 7.0 mi SSW 12.7 mph 17.3 mph N/A   Overcast
5:55 PM 33.8 °F 28.6 °F 32.0 °F 93% 29.89 in 5.0 mi SSW 5.8 mph - N/A   Light Drizzle
6:15 PM 33.8 °F 27.0 °F 32.0 °F 93% 29.89 in 7.0 mi SW 8.1 mph - N/A   Overcast
6:35 PM 33.8 °F 28.6 °F 32.0 °F 93% 29.90 in 7.0 mi SSW 5.8 mph - N/A   Overcast
6:55 PM 33.8 °F 27.0 °F 32.0 °F 93% 29.90 in 7.0 mi SSW 8.1 mph - N/A   Overcast
7:15 PM 33.8 °F 26.4 °F 32.0 °F 93% 29.91 in 10.0 mi SW 9.2 mph - N/A   Overcast
7:35 PM 33.8 °F 28.6 °F 30.2 °F 87% 29.91 in 10.0 mi SW 5.8 mph - N/A   Overcast
7:55 PM 33.8 °F 28.6 °F 30.2 °F 87% 29.91 in 10.0 mi SSW 5.8 mph - N/A   Overcast
8:15 PM 33.8 °F 29.6 °F 30.2 °F 87% 29.91 in 7.0 mi SW 4.6 mph - N/A   Overcast
8:35 PM 33.8 °F 29.6 °F 30.2 °F 87% 29.91 in 7.0 mi SSW 4.6 mph - N/A   Overcast
8:55 PM 33.8 °F 28.6 °F 32.0 °F 93% 29.91 in 5.0 mi SSW 5.8 mph - N/A   Overcast
9:15 PM 33.8 °F 27.7 °F 32.0 °F 93% 29.92 in 5.0 mi WSW 6.9 mph - N/A Rain Light Rain
9:35 PM 33.8 °F 28.6 °F 30.2 °F 87% 29.92 in 7.0 mi SW 5.8 mph - N/A   Overcast
9:55 PM 32.0 °F 25.6 °F 30.2 °F 93% 29.92 in 10.0 mi SW 6.9 mph - N/A   Overcast
10:15 PM 32.0 °F 27.5 °F 30.2 °F 93% 29.93 in 10.0 mi SW 4.6 mph - N/A   Overcast
10:35 PM 32.0 °F 27.5 °F 30.2 °F 93% 29.92 in 10.0 mi SW 4.6 mph - N/A   Overcast
10:55 PM 32.0 °F 26.4 °F 30.2 °F 93% 29.92 in 7.0 mi SW 5.8 mph - N/A   Overcast
11:15 PM 32.0 °F 24.8 °F 30.2 °F 93% 29.92 in 7.0 mi WSW 8.1 mph - N/A   Overcast
11:35 PM 32.0 °F 24.2 °F 28.4 °F 87% 29.92 in 10.0 mi West 9.2 mph - N/A   Overcast
11:55 PM 32.0 °F 23.0 °F 26.6 °F 80% 29.92 in 10.0 mi WSW 11.5 mph 18.4 mph N/A   Overcast